Showing default

MERIDIAN 8, 44453

Orbit data source: Space-Track

MERIDIAN 8, 44453 is a payload satellite owned by VVKO VKS (CIS) that was launched on Tue, 30 Jul 2019 UTC via a SOYUZ-2-1A launch vehicle from the Plesetsk Missile And Space Complex (PKMTR). Payload-class satellites include a variety of spacecraft equipped with specific instruments for various scientific and technological missions. These include communications satellites like Starlink; space stations such as the ISS; scientific satellites like the Hubble; Earth observation satellites from companies like Planet Labs, Umbra, and HawkEye 360; GPS; miniature CubeSats for education and research; and military/defense satellites.

Loading next visibility...
Identifier
44453, 2019-046A
Orbit
Molniya
Country
Flag of CISCIS
Related business
Manufacturer
Resehetnev ISS
Mission
Partially operational Defense Communications
Bus & Motor
MERIDIAN, Unknown motor
Mass
~2,000 kg wet, ~2,000 kg dry
Launch date (UTC)
2019-07-30 (6 years ago)
Launch vehicle
SOYUZ-2-1A
Launch site
Plesetsk Missile And Space Complex (PKMTR)
Object type
Payload
Rocket body
Debris
Shape & HBR
Box + 2 Pan, 5.0 m
Radar Cross Section
14.304 m², Large (>1 m²)

Expand to show TLE details & history
Last TLE update: 4 days ago

TLE from 4 days ago
0 MERIDIAN 8
1 44453U 19046A   25352.27904051  .00000007  00000-0  00000-0 0  9992
2 44453  62.9648  73.7976 7012166 274.3166  15.3641  2.00626761 46716
Epoch: 2025-12-18T06:41Z
TLE epoch observation values (Epoch: 2025-12-18T06:41:49.100Z)
Latitude
-0.00027°
Longitude
-113.75296°
Altitude
6,492.343 km
Speed
6.851 km/s
True Right ascension
04h 55m 21s
True Declination
0° 00' 01"
Sunlit
Object was in full shadow at epoch
Visualization orbit readout
Latitude
Unknown
Longitude
Unknown
Altitude
Unknown
Speed
Unknown
Apparent Right ascension
Unknown
Apparent Declination
Unknown
Sunlit
N/A
Visualization observer readout
Local Sidereal Time
22:40:37
Azimuth
Unknown
Elevation
Unknown
Doppler factor
Unknown
Orbital elements
Apogee altitude
38,795.832 km
Perigee altitude
1,555.733 km
Semi-major axis
26,553.92 km
Eccentricity
0.70122
Inclination
62.9648°
RAAN
73.7976°
Arg. of periapsis
274.3166°
True anomaly
85.74015°
Mean anomaly
15.3641°
Eccentric anomaly
42.51474°
Mean motion
0.50159 °/min
Orbital period
717.72 mins
BSTAR
0
Loading maneuver chart data...
Computing Atmospheric mass density...
Loading historical data...
Loading historical data...
Loading historical data...
Loading historical data...
Loading historical data...
Loading historical data...
Loading historical data...
Other satellites on launch #46 in the year 2019 (2019-07-30 UTC)

Documentation

Showing up to 5 results
|